Cooperstown, ND

8:51 AM CDT on August 27, 2016 (GMT -0500)
Cooperstown

Weather History for KS32 - September, 2012

Change the Weather History Date:

Friday, September 14, 2012

  Actual Average (KJMS) Record (KJMS)
Temperature  
Mean Temperature 52 °F 58 °F  
Max Temperature 73 °F 71 °F 91 °F (1908)
Min Temperature 32 °F 46 °F 27 °F (1949)
Degree Days  
Heating Degree Days 12 8  
Month to date heating degree days 78  
Since 1 July heating degree days 144  
Cooling Degree Days 0 1  
Month to date cooling degree days 22  
Year to date cooling degree days 437  
Growing Degree Days 2 (Base 50)    
Moisture  
Dew Point 32 °F    
Average Humidity 51    
Maximum Humidity 100    
Minimum Humidity 18    
Precipitation  
Precipitation 0.00 in 0.07 in 2.02 in (1900)
Month to date precipitation 1.06  
Year to date precipitation 15.25  
Sea Level Pressure  
Sea Level Pressure 30.27 in    
Wind  
Wind Speed 5 mph (SE)    
Max Wind Speed 13 mph    
Max Gust Speed 28 mph    
Visibility 10 miles    
Events      
T = Trace of Precipitation, MM = Missing Value Source: NWS Daily Summary

Daily Weather History Graph

Daily Weather History Graph

Search for Another Location

Airport or City:

Trip Planner

Search our weather history database for the weather conditions in past years. The results will help you decide how hot, cold, wet, or windy it might be!

Date:

Astronomy

Sep. 14, 2012 Rise Set
Actual Time 7:09 AM CDT 7:45 PM CDT
Civil Twilight 6:38 AM CDT 8:16 PM CDT
Nautical Twilight 6:01 AM CDT 8:52 PM CDT
Astronomical Twilight 5:23 AM CDT 9:31 PM CDT
Moon 5:31 AM CDT (9/14) 6:43 PM CDT (9/14)
Length of Visible Light 13h 37m
Length of Day
12h 36m
Waning Crescent, 2% of the Moon is Illuminated
Sep 14
Waning Crescent
Sep 15
New
Sep 22
First Quarter
Sep 29
Full
Oct 8
Last Quarter

Hourly Weather History & Observations

Time (CDT) Temp. Windchill Dew Point Humidity Pressure Visibility Wind Dir Wind Speed Gust Speed Precip Events Conditions
12:15 AM 46.4 °F 44.3 °F 32.0 °F 57% 30.30 in 10.0 mi ESE 4.6 mph - N/A   Clear
12:35 AM 44.6 °F 41.4 °F 32.0 °F 61% 30.31 in 10.0 mi ESE 5.8 mph - N/A   Clear
12:55 AM 42.8 °F 40.1 °F 32.0 °F 66% 30.31 in 10.0 mi ESE 4.6 mph - N/A   Clear
1:15 AM 44.6 °F 42.2 °F 32.0 °F 61% 30.31 in 10.0 mi ESE 4.6 mph - N/A   Clear
1:55 AM 42.8 °F 40.1 °F 35.6 °F 76% 30.32 in 10.0 mi ENE 4.6 mph - N/A   Clear
2:15 AM 41.0 °F - 35.6 °F 81% 30.32 in 10.0 mi Calm Calm - N/A   Clear
2:35 AM 39.2 °F 37.0 °F 35.6 °F 87% 30.32 in 10.0 mi East 3.5 mph - N/A   Clear
2:55 AM 39.2 °F 37.0 °F 32.0 °F 75% 30.32 in 10.0 mi East 3.5 mph - N/A   Clear
3:15 AM 39.2 °F - 35.6 °F 87% 30.31 in 10.0 mi Calm Calm - N/A   Clear
3:35 AM 39.2 °F - 37.4 °F 93% 30.32 in 10.0 mi Calm Calm - N/A   Clear
3:55 AM 37.4 °F 33.8 °F 35.6 °F 93% 30.31 in 10.0 mi NE 4.6 mph - N/A   Clear
4:15 AM 35.6 °F 32.8 °F 33.8 °F 93% 30.31 in 10.0 mi NE 3.5 mph - N/A   Clear
4:35 AM 37.4 °F 34.9 °F 35.6 °F 93% 30.31 in 10.0 mi NE 3.5 mph - N/A   Clear
4:55 AM 37.4 °F - 35.6 °F 93% 30.31 in 10.0 mi Calm Calm - N/A   Clear
5:15 AM 37.4 °F - 35.6 °F 93% 30.31 in 10.0 mi Calm Calm - N/A   Clear
5:35 AM 37.4 °F - 35.6 °F 93% 30.31 in 10.0 mi Calm Calm - N/A   Clear
5:55 AM 35.6 °F - 32.0 °F 87% 30.32 in 10.0 mi Calm Calm - N/A   Clear
6:15 AM 35.6 °F - 32.0 °F 87% 30.32 in 10.0 mi Calm Calm - N/A   Clear
6:35 AM 33.8 °F - 32.0 °F 93% 30.32 in 10.0 mi Calm Calm - N/A   Clear
6:55 AM 33.8 °F 27.7 °F 32.0 °F 93% 30.32 in 10.0 mi ENE 6.9 mph - N/A   Clear
7:15 AM 35.6 °F - 33.8 °F 93% 30.33 in 10.0 mi Calm Calm - N/A   Clear
7:35 AM 32.0 °F - 32.0 °F 100% 30.33 in 10.0 mi Calm Calm - N/A   Clear
7:55 AM 35.6 °F - 32.0 °F 87% 30.33 in 10.0 mi Calm Calm - N/A   Clear
8:15 AM 41.0 °F 39.0 °F 35.6 °F 81% 30.33 in 10.0 mi NE 3.5 mph - N/A   Clear
8:35 AM 44.6 °F 43.1 °F 35.6 °F 71% 30.33 in 10.0 mi East 3.5 mph - N/A   Clear
8:55 AM 48.2 °F - 37.4 °F 66% 30.33 in 10.0 mi East 3.5 mph - N/A   Clear
9:15 AM 51.8 °F - 35.6 °F 54% 30.33 in 10.0 mi SE 5.8 mph - N/A   Clear
9:35 AM 53.6 °F - 35.6 °F 51% 30.33 in 10.0 mi SE 6.9 mph - N/A   Clear
9:55 AM 57.2 °F - 35.6 °F 44% 30.33 in 10.0 mi SE 8.1 mph - N/A   Clear
10:15 AM 59.0 °F - 33.8 °F 39% 30.33 in 10.0 mi SE 9.2 mph - N/A   Clear
10:35 AM 60.8 °F - 35.6 °F 39% 30.34 in 10.0 mi SSE 6.9 mph - N/A   Clear
10:55 AM 62.6 °F - 32.0 °F 32% 30.33 in 10.0 mi SSE 11.5 mph - N/A   Clear
11:15 AM 64.4 °F - 32.0 °F 30% 30.33 in 10.0 mi SE 12.7 mph - N/A   Clear
11:35 AM 64.4 °F - 32.0 °F 30% 30.33 in 10.0 mi SSE 9.2 mph 16.1 mph N/A   Clear
11:55 AM 66.2 °F - 32.0 °F 28% 30.33 in 10.0 mi SE 6.9 mph 16.1 mph N/A   Clear
12:35 PM 68.0 °F - 30.2 °F 24% 30.31 in 10.0 mi SE 8.1 mph - N/A   Clear
12:55 PM 68.0 °F - 30.2 °F 24% 30.31 in 10.0 mi SSE 9.2 mph 18.4 mph N/A   Clear
1:15 PM 69.8 °F - 32.0 °F 25% 30.30 in 10.0 mi SSE 6.9 mph - N/A   Clear
1:35 PM 71.6 °F - 30.2 °F 22% 30.29 in 10.0 mi SSE 12.7 mph - N/A   Clear
1:55 PM 71.6 °F - 28.4 °F 20% 30.29 in 10.0 mi South 11.5 mph 17.3 mph N/A   Clear
2:15 PM 71.6 °F - 28.4 °F 20% 30.28 in 10.0 mi SSE 10.4 mph 16.1 mph N/A   Clear
2:35 PM 71.6 °F - 28.4 °F 20% 30.27 in 10.0 mi South 9.2 mph 16.1 mph N/A   Clear
2:55 PM 71.6 °F - 28.4 °F 20% 30.26 in 10.0 mi South 10.4 mph - N/A   Clear
3:15 PM 73.4 °F - 26.6 °F 18% 30.26 in 10.0 mi SSW 8.1 mph 27.6 mph N/A   Clear
3:35 PM 73.4 °F - 28.4 °F 19% 30.25 in 10.0 mi South 10.4 mph 16.1 mph N/A   Clear
3:55 PM 73.4 °F - 26.6 °F 18% 30.25 in 10.0 mi SSW 12.7 mph 17.3 mph N/A   Clear
4:15 PM 73.4 °F - 28.4 °F 19% 30.24 in 10.0 mi South 9.2 mph - N/A   Clear
4:35 PM 73.4 °F - 28.4 °F 19% 30.23 in 10.0 mi South 11.5 mph - N/A   Clear
4:55 PM 73.4 °F - 28.4 °F 19% 30.23 in 10.0 mi SSE 12.7 mph - N/A   Clear
5:15 PM 73.4 °F - 28.4 °F 19% 30.22 in 10.0 mi South 12.7 mph 16.1 mph N/A   Clear
5:35 PM 73.4 °F - 28.4 °F 19% 30.22 in 10.0 mi South 9.2 mph - N/A   Clear
5:55 PM 71.6 °F - 28.4 °F 20% 30.22 in 10.0 mi SSW 9.2 mph 16.1 mph N/A   Clear
6:15 PM 71.6 °F - 28.4 °F 20% 30.21 in 10.0 mi South 9.2 mph - N/A   Clear
6:35 PM 71.6 °F - 28.4 °F 20% 30.21 in 10.0 mi SSE 9.2 mph - N/A   Clear
6:55 PM 68.0 °F - 28.4 °F 23% 30.20 in 10.0 mi SSE 8.1 mph - N/A   Clear
7:15 PM 66.2 °F - 30.2 °F 26% 30.20 in 10.0 mi SSE 6.9 mph - N/A   Clear
7:35 PM 62.6 °F - 32.0 °F 32% 30.19 in 10.0 mi SSE 8.1 mph - N/A   Clear
7:55 PM 57.2 °F - 32.0 °F 38% 30.19 in 10.0 mi SSE 8.1 mph - N/A   Clear
8:15 PM 57.2 °F - 32.0 °F 38% 30.19 in 10.0 mi SSE 6.9 mph - N/A   Clear
8:35 PM 55.4 °F - 32.0 °F 41% 30.19 in 10.0 mi SE 8.1 mph - N/A   Clear
8:55 PM 55.4 °F - 32.0 °F 41% 30.19 in 10.0 mi SE 9.2 mph - N/A   Clear
9:15 PM 55.4 °F - 32.0 °F 41% 30.18 in 10.0 mi SE 8.1 mph - N/A   Clear
9:35 PM 51.8 °F - 32.0 °F 47% 30.18 in 10.0 mi SSE 8.1 mph - N/A   Clear
9:55 PM 50.0 °F - 32.0 °F 50% 30.18 in 10.0 mi SSE 8.1 mph - N/A   Clear
10:15 PM 50.0 °F - 32.0 °F 50% 30.18 in 10.0 mi SSE 8.1 mph - N/A   Clear
10:35 PM 48.2 °F - 32.0 °F 54% 30.17 in 10.0 mi SSE 9.2 mph - N/A   Clear
10:55 PM 48.2 °F - 32.0 °F 54% 30.17 in 10.0 mi SSE 8.1 mph - N/A   Clear
11:15 PM 50.0 °F - 32.0 °F 50% 30.17 in 10.0 mi SSE 10.4 mph - N/A   Clear
11:35 PM 48.2 °F - 32.0 °F 54% 30.16 in 10.0 mi SSE 10.4 mph - N/A   Clear
11:55 PM 50.0 °F - 32.0 °F 50% 30.16 in 10.0 mi SSE 10.4 mph - N/A   Clear